Theta_e
339 339 340 340 341 341 340 340 341 341 341 342 342 341 341 341 340 338 337 336 336 337 336 335 335 334 334 333 332 333 334 335 335 335 335 336 336 337 337 335 335 336 335 336 335 335 337 337 337 337 337 336 336 335 335 335 335 335 335 335 334 334 334 334 333 333 332 333 333 332 331 330 329 328 328 327 326 325 322 321 322 325 327 328 329
339 339 340 340 341 341 341 342 342 342 342 342 342 342 341 339 338 337 336 336 336 337 336 335 333 332 333 333 333 334 335 335 336 336 336 336 337 339 338 336 335 335 335 335 335 336 337 337 337 337 337 336 336 336 335 335 335 335 336 335 335 334 334 334 333 333 332 332 332 332 332 331 330 329 328 327 326 326 325 323 321 323 326 327 328
339 340 340 340 340 341 341 342 342 342 342 343 342 341 340 338 338 338 338 337 336 336 335 333 332 332 333 334 335 335 335 335 337 337 337 337 338 340 339 337 336 335 335 336 335 335 336 336 336 336 336 336 336 335 335 335 335 335 336 335 335 334 334 334 333 333 333 333 332 332 332 332 331 330 329 328 327 327 326 325 322 322 324 326 327
339 340 340 339 339 340 341 342 343 343 342 342 341 340 339 339 339 340 339 338 336 335 333 333 333 333 333 333 334 334 334 335 336 337 337 338 338 339 338 338 336 334 333 333 333 333 333 334 334 334 334 334 334 335 335 335 335 335 335 335 334 334 334 334 333 333 334 334 333 333 332 332 332 331 330 329 328 327 326 326 324 322 322 325 326
339 340 340 339 340 340 341 342 343 343 343 342 340 339 339 340 340 339 338 336 334 334 333 332 332 332 333 332 332 333 333 334 335 336 337 336 336 335 335 335 334 333 332 331 330 331 330 331 331 332 333 333 334 334 334 334 334 334 334 334 334 334 334 333 333 333 333 334 334 333 333 333 332 332 332 331 329 328 327 326 326 323 320 322 325
339 340 340 340 340 341 342 342 343 343 342 341 339 340 340 339 338 337 336 334 333 333 332 332 331 331 331 331 331 332 334 334 334 335 334 333 332 331 331 331 331 331 331 330 329 328 327 328 329 329 330 331 332 332 332 333 332 332 332 332 332 332 333 333 333 333 333 333 333 333 333 334 333 332 333 332 331 329 327 327 326 325 322 320 323
340 341 340 341 342 342 343 342 342 342 341 340 340 340 340 338 337 337 336 334 333 332 332 332 333 332 332 332 332 333 334 333 333 333 332 331 328 326 325 326 326 327 329 330 329 327 324 324 325 325 325 326 328 328 328 329 329 329 330 330 331 331 331 332 332 332 333 333 333 333 333 333 333 332 333 333 332 330 328 327 326 326 325 321 321
340 340 341 342 342 342 342 342 341 342 341 341 341 339 338 337 336 337 336 334 333 333 332 332 332 333 333 333 333 333 333 332 331 330 330 328 326 324 321 320 321 322 324 326 327 326 323 320 320 320 321 321 322 323 323 325 326 326 327 327 328 328 328 329 330 330 331 331 332 332 332 333 333 333 333 333 333 332 330 328 327 326 326 324 321
340 341 342 342 342 342 342 341 341 342 341 340 340 338 337 337 335 335 336 334 332 332 331 330 330 332 334 333 333 332 331 331 330 328 328 327 326 323 320 317 317 319 321 322 323 325 321 317 316 316 316 317 316 317 318 319 320 322 323 324 325 325 325 326 327 327 328 328 329 330 330 330 332 333 333 333 333 333 332 329 328 327 326 326 323
341 342 342 341 341 341 340 340 341 341 340 339 337 336 336 336 334 333 334 333 331 331 329 327 328 331 333 333 331 331 331 330 328 327 326 325 324 322 319 315 315 317 318 319 319 321 319 314 314 314 313 312 311 312 312 313 313 315 318 319 320 322 322 323 324 325 325 326 327 328 328 328 329 331 331 333 333 333 333 330 328 328 327 327 326
342 342 342 341 341 340 340 340 340 339 338 337 336 336 336 335 334 333 334 332 329 329 327 326 329 331 332 331 331 331 330 329 327 325 323 321 320 318 316 313 313 314 316 316 315 316 316 313 311 311 311 309 307 306 306 307 308 308 311 313 314 317 319 320 321 322 322 323 324 325 325 325 326 328 329 330 332 333 333 332 330 329 328 328 327
341 342 341 340 340 339 339 338 338 338 337 336 335 335 335 334 333 332 333 332 327 325 325 327 331 332 331 330 331 330 328 327 326 324 321 317 316 315 313 311 311 313 315 315 312 311 312 311 310 309 309 308 307 306 304 306 306 303 307 309 309 312 315 317 317 318 319 320 322 323 323 323 323 324 326 327 329 331 332 332 332 330 329 329 328
341 341 340 339 338 338 337 337 337 336 335 335 334 334 333 333 332 331 330 330 326 323 324 329 331 330 331 331 330 330 328 326 324 322 318 312 312 313 312 311 311 312 313 313 310 309 309 310 310 309 309 309 309 308 307 309 307 301 305 308 306 307 311 313 313 314 316 316 318 319 320 320 320 322 324 325 326 328 330 331 332 331 330 329 328
340 339 338 337 337 336 336 336 335 334 334 333 332 332 331 331 331 331 329 327 325 323 321 325 326 324 330 332 330 329 328 326 324 321 314 309 310 312 312 311 311 311 311 310 309 309 308 309 309 309 309 309 309 309 309 310 307 303 306 308 306 305 309 311 310 311 314 314 314 315 315 315 317 319 321 323 324 326 327 329 331 331 331 329 328
338 338 337 336 336 335 335 335 334 333 333 332 331 330 329 329 329 330 330 326 324 322 320 321 323 325 329 328 327 330 329 325 323 321 314 309 309 311 311 311 310 310 309 309 308 309 308 308 309 309 308 309 308 309 309 309 307 307 309 309 306 304 306 307 307 309 311 311 313 313 311 310 313 315 317 320 321 323 325 326 327 329 330 330 329
336 336 335 334 334 334 333 333 332 331 331 330 329 327 326 326 326 326 328 327 324 321 320 319 321 325 326 324 323 325 324 320 323 322 315 311 309 310 310 310 310 310 308 308 308 308 309 308 309 309 308 308 308 308 309 308 307 308 309 308 305 304 305 304 305 308 309 310 311 311 310 309 310 312 314 316 317 320 323 324 325 327 329 330 329
333 333 333 333 332 332 331 330 330 330 329 328 326 324 323 323 324 324 325 327 325 322 320 318 318 319 322 324 324 320 316 317 322 321 315 311 310 310 310 310 310 310 309 309 309 308 309 308 308 308 308 308 308 308 308 308 308 308 309 307 304 305 306 304 304 306 307 308 309 309 310 310 310 310 310 311 313 316 320 322 323 325 327 328 330
331 331 331 330 329 329 329 329 329 328 327 325 323 321 321 321 321 321 322 324 324 322 321 319 317 316 316 316 318 316 314 315 318 320 316 312 310 311 311 310 310 310 309 308 308 308 308 308 308 308 308 307 307 307 307 308 308 307 307 306 304 304 305 304 305 305 305 306 307 308 309 310 310 310 309 309 311 313 316 319 320 322 324 326 328
329 329 328 328 328 328 328 327 326 325 323 322 320 319 319 318 318 319 319 320 320 320 321 319 317 316 314 311 310 311 312 314 316 318 318 313 309 310 310 309 308 309 308 307 307 307 307 307 307 307 307 307 307 307 307 307 307 307 306 304 303 304 304 304 304 303 303 304 306 307 308 308 309 309 310 310 311 311 312 314 317 319 321 323 326
327 327 326 326 326 326 325 325 323 322 320 319 319 318 317 316 316 316 316 317 318 316 316 317 315 315 314 312 311 311 311 313 315 315 315 312 310 310 309 307 306 306 307 307 306 306 306 306 307 306 306 306 306 306 306 307 307 306 305 303 303 304 304 304 304 302 302 303 304 306 306 307 307 308 309 310 310 310 310 311 312 315 318 320 322
325 324 324 324 324 324 323 322 320 319 318 317 316 314 314 315 315 314 313 313 314 313 312 313 314 314 314 313 313 312 311 312 313 313 313 313 310 311 310 309 308 306 306 307 306 306 305 305 306 306 305 306 306 306 306 306 306 306 304 302 303 304 303 303 303 302 302 302 303 304 305 305 306 307 308 308 309 309 309 309 310 312 314 316 318
324 322 322 322 322 322 321 319 317 316 316 315 313 311 311 312 311 311 311 311 310 311 312 312 312 312 312 312 313 312 312 312 312 312 313 313 311 310 310 310 310 308 306 307 306 305 305 304 305 305 305 305 305 305 306 306 306 305 303 302 303 303 303 303 302 302 302 302 302 303 303 304 305 306 307 307 307 307 308 308 309 310 312 313 314
321 320 320 320 320 320 318 316 315 315 315 314 313 312 311 310 308 307 309 310 309 310 310 311 311 310 310 310 311 311 311 311 311 311 311 313 312 310 309 309 308 307 306 307 306 304 304 303 304 304 304 304 305 305 305 305 305 305 303 303 303 303 303 303 302 302 301 301 302 302 303 303 304 304 305 305 305 306 306 307 308 309 310 309 309
319 319 319 318 318 317 316 315 315 314 314 313 312 311 310 309 308 308 308 310 310 310 311 310 309 309 309 309 309 309 309 309 309 310 310 310 311 310 309 309 309 307 306 306 305 303 303 303 303 303 303 304 304 305 305 305 305 304 303 303 303 303 303 303 302 301 301 301 301 301 301 302 302 303 303 303 304 304 305 305 306 305 305 304 304
319 319 318 317 317 317 316 315 314 312 312 312 310 309 308 307 307 308 308 308 309 309 310 310 309 309 308 308 308 308 308 308 308 308 308 308 309 310 309 309 309 308 306 305 304 302 303 303 303 302 302 303 303 304 305 305 305 304 302 303 303 304 303 303 302 301 301 301 301 300 300 301 301 301 301 302 302 303 303 303 304 303 303 303 304
319 319 318 317 317 316 315 314 312 311 310 309 308 307 307 307 307 308 308 307 307 308 308 309 308 308 308 307 307 307 307 307 306 306 307 307 307 309 309 309 309 307 306 305 303 302 302 303 302 301 302 303 303 304 304 304 305 303 301 303 305 304 304 303 302 301 301 301 300 300 300 300 300 300 300 300 301 301 302 303 303 304 304 304 304
317 317 317 317 316 315 314 312 311 310 310 308 306 306 307 307 307 308 307 307 307 307 308 308 308 307 307 306 306 306 306 306 306 305 306 306 306 306 307 308 308 307 307 306 303 302 302 302 302 301 302 302 303 304 304 304 304 302 301 304 305 305 304 303 302 301 301 301 300 300 299 299 299 299 299 299 300 301 302 302 303 303 304 304 304
315 315 316 315 315 314 313 311 310 310 309 308 307 307 307 307 307 307 307 307 307 306 307 307 307 307 306 306 306 305 305 305 305 305 305 305 305 305 305 306 307 307 307 307 305 303 302 302 302 301 301 302 302 303 303 304 303 301 302 304 304 305 304 303 302 302 301 301 300 300 299 299 298 298 299 299 299 300 301 302 302 302 303 303 303
314 314 315 314 314 313 312 311 310 309 308 307 307 307 307 307 307 307 307 307 307 306 306 307 307 306 306 305 305 305 304 304 304 305 305 305 305 305 304 304 306 306 306 306 305 303 303 302 302 302 301 301 302 303 303 304 302 301 302 304 304 305 304 302 302 302 302 301 301 300 299 298 298 298 298 298 299 300 300 300 301 301 302 302 303
313 313 314 313 313 312 311 310 309 308 308 307 307 307 307 307 307 306 306 306 307 306 306 306 306 306 305 305 305 305 304 304 304 304 304 305 304 304 304 304 305 305 306 306 304 303 303 302 302 302 301 301 302 303 303 303 302 301 302 303 304 304 303 303 303 303 302 302 301 300 299 299 298 298 298 298 298 299 299 299 299 300 300 300 301
313 314 313 313 312 311 310 310 309 308 307 307 307 307 307 306 306 306 306 306 306 306 306 305 305 305 305 305 305 305 304 304 304 303 304 304 304 304 304 304 303 304 305 305 305 303 303 302 302 302 301 301 302 302 302 302 301 301 302 303 304 303 303 304 304 303 302 302 301 300 299 299 298 298 297 298 298 298 298 298 298 298 298 298 298
314 313 313 312 312 311 310 310 309 307 306 307 306 306 306 306 306 306 306 305 305 305 305 305 304 304 303 303 304 304 304 304 303 303 303 304 303 303 303 303 303 303 303 304 305 304 303 302 302 302 301 301 302 302 302 301 301 301 302 303 303 303 303 304 304 303 303 302 301 300 299 299 298 298 298 298 297 297 297 297 296 296 296 296 296
314 313 312 312 311 310 310 309 308 307 306 307 306 306 306 306 306 306 305 304 304 304 304 304 304 303 303 302 303 303 303 303 303 303 303 303 302 302 302 302 302 302 303 303 304 304 303 303 302 302 301 301 302 301 301 301 301 302 302 303 303 303 303 304 304 303 302 302 301 300 299 299 298 298 298 297 297 297 297 296 296 296 296 296 296
313 312 312 311 311 310 309 308 307 306 306 306 306 306 306 306 305 305 304 304 303 303 303 304 304 304 303 302 303 303 303 303 303 302 303 302 302 302 302 302 302 302 302 303 303 303 303 303 302 302 301 301 301 301 300 301 301 302 303 303 303 303 303 303 303 303 302 301 301 300 299 299 298 298 298 297 297 297 296 296 296 296 296 296 296
312 312 311 311 310 310 309 307 306 306 306 306 306 305 305 305 305 304 304 304 304 303 303 303 303 303 303 303 303 303 303 303 303 302 303 302 302 302 302 302 302 302 303 303 303 303 303 303 303 302 301 301 301 301 300 300 301 302 302 302 303 303 303 303 303 303 302 301 301 300 299 299 299 298 298 297 297 297 297 297 297 297 297 297 297
312 312 311 310 310 309 308 306 306 306 305 305 305 305 304 304 304 304 304 304 304 303 303 303 303 303 303 303 303 303 302 303 302 302 302 302 302 302 302 302 302 302 303 302 302 302 303 303 303 302 301 301 301 300 300 300 301 301 302 302 302 303 303 302 302 303 302 301 301 300 300 299 299 298 298 297 297 297 297 297 298 298 298 298 298
312 311 311 310 309 308 307 306 306 305 305 305 304 304 304 304 304 304 304 303 303 303 303 303 303 302 302 302 302 302 302 302 302 302 302 303 302 301 302 302 301 302 303 302 302 302 302 303 302 301 301 301 300 300 300 300 300 301 301 302 302 302 302 302 302 302 302 301 301 301 300 300 299 298 298 297 297 297 297 298 298 298 298 298 298
311 310 310 309 308 307 306 305 305 305 305 304 304 304 303 303 304 303 303 303 303 302 302 302 302 302 302 302 301 301 301 302 302 302 302 303 302 302 302 302 302 302 302 302 302 302 302 302 301 301 301 300 300 300 300 300 300 301 301 302 302 302 302 301 301 302 302 301 301 301 300 300 299 298 298 297 297 297 298 298 298 298 297 297 297
311 310 309 309 308 306 305 305 305 305 304 304 304 303 303 303 303 303 303 303 302 302 302 301 302 302 302 301 301 300 300 301 301 301 302 303 303 301 301 302 301 301 302 301 301 301 301 301 301 301 300 300 300 300 299 299 300 300 301 302 302 302 301 301 301 301 301 301 301 301 300 300 299 298 298 297 297 298 298 298 299 298 296 296 296
310 310 309 308 307 306 305 305 305 304 304 304 303 303 303 303 303 303 302 302 302 301 301 301 301 302 301 300 299 298 297 297 297 297 298 300 302 301 300 301 300 301 301 301 300 301 301 301 300 300 300 300 300 299 299 299 300 300 301 302 302 301 301 301 301 301 301 300 300 301 300 299 299 299 298 298 298 298 298 299 298 297 296 295 296
310 309 309 308 306 305 305 305 305 304 304 303 303 303 303 303 303 302 302 302 302 301 301 301 301 300 299 298 296 294 293 292 293 294 294 295 298 299 299 299 299 299 300 300 300 300 300 300 300 300 300 300 299 299 299 299 299 300 301 301 302 301 300 300 301 301 301 300 300 300 300 299 299 298 298 298 298 298 298 298 297 295 295 295 296
310 309 308 307 306 305 305 305 304 304 304 303 302 302 302 302 302 302 302 302 302 301 301 301 300 299 298 296 294 293 293 292 292 292 293 293 294 295 295 296 296 297 298 299 299 299 300 300 300 299 299 300 299 298 298 298 299 299 300 301 301 301 300 301 301 300 300 300 300 300 300 299 298 298 298 298 297 297 298 297 295 294 294 295 295
309 309 308 307 305 304 305 305 304 304 304 302 301 301 301 301 302 303 302 302 302 302 301 301 300 300 299 298 296 295 296 296 295 293 292 292 292 292 292 293 293 294 296 297 298 299 299 300 300 299 299 299 299 298 298 298 298 299 300 301 301 301 301 301 301 300 300 299 299 300 299 299 299 298 298 298 297 297 297 296 294 294 294 295 295
309 308 307 306 305 304 304 304 304 304 303 300 299 299 300 300 302 302 302 302 302 302 301 301 300 300 299 298 297 296 295 296 298 297 295 293 292 292 293 293 292 292 292 294 295 296 299 300 299 298 298 298 298 297 297 298 298 299 300 301 301 301 301 301 301 300 300 299 299 299 299 299 299 298 299 298 297 297 296 295 294 293 294 294 295
308 308 307 306 305 304 304 304 304 303 301 297 297 298 298 299 301 302 302 302 302 301 301 301 300 300 299 298 298 297 295 295 297 299 298 296 295 295 296 296 295 293 292 292 293 294 297 299 299 298 298 298 297 297 297 297 298 299 300 300 301 301 301 301 300 300 300 299 299 298 299 299 299 298 299 298 298 297 296 294 294 293 293 294 295
308 308 307 306 305 304 304 303 303 303 300 297 297 297 296 298 300 301 302 302 301 301 301 300 300 300 299 299 298 298 298 296 294 296 297 298 299 299 298 298 298 296 294 293 294 295 296 298 298 297 297 297 297 297 297 297 297 298 299 300 300 300 301 300 299 299 299 299 298 298 298 299 298 298 298 298 297 297 296 294 294 293 293 294 294
308 307 307 306 304 304 304 304 304 303 299 297 297 296 296 296 299 301 302 301 301 301 300 300 299 299 299 299 298 299 299 295 291 291 294 297 300 300 299 300 300 299 296 293 292 292 293 295 296 296 296 296 295 296 296 295 296 297 299 299 299 300 300 300 299 299 299 299 298 297 298 298 298 297 297 297 296 296 296 295 294 294 293 294 294
307 307 306 305 304 304 304 304 304 303 299 297 296 296 295 295 298 301 302 301 301 301 300 299 299 299 299 299 298 299 298 294 291 290 291 296 299 299 300 301 300 300 298 295 292 291 291 292 293 292 292 293 294 295 295 294 295 296 298 299 298 299 300 299 299 299 299 299 298 297 298 298 297 297 297 296 296 296 296 295 294 294 294 294 294
307 306 305 304 304 305 304 303 304 302 299 296 296 296 295 295 298 301 301 300 300 300 300 299 299 299 298 298 298 300 298 293 290 290 291 295 299 299 300 301 299 298 298 297 296 294 293 293 294 294 293 293 294 296 295 294 294 296 298 298 298 299 300 299 299 299 298 298 298 297 297 297 297 297 296 296 295 295 295 295 294 294 294 294 294
306 305 305 304 304 303 302 302 302 301 298 296 296 296 295 296 299 301 301 300 300 300 299 299 300 298 295 293 295 299 297 292 290 290 291 295 298 299 299 300 299 298 297 297 297 296 295 297 297 297 297 296 296 296 296 295 295 296 298 298 298 299 299 299 299 299 298 298 297 297 297 297 297 297 297 296 295 295 295 295 294 294 294 294 294
306 305 304 303 301 300 299 300 300 299 297 296 296 295 295 295 299 301 300 300 300 300 299 299 299 299 296 292 292 294 293 290 290 290 291 293 297 299 299 299 299 297 295 296 297 296 297 299 299 298 297 297 296 297 296 295 295 296 297 298 298 298 299 299 299 299 298 298 297 297 297 297 297 297 297 296 296 295 295 295 294 294 294 294 295
Wind_Speed
7 6 6 6 7 7 7 6 6 5 4 3 2 1 0 1 2 3 3 4 4 4 5 6 6 5 6 7 7 7 8 8 8 8 8 7 7 7 8 7 7 7 7 7 8 8 7 7 8 8 9 10 12 13 14 15 15 16 17 17 18 18 18 17 19 21 19 19 19 18 18 18 17 17 16 16 16 15 15 16 17 17 16 14 13
6 6 5 6 6 6 5 5 5 5 4 3 2 1 1 2 3 4 4 5 5 5 6 6 6 6 6 7 8 8 8 8 8 8 8 7 6 5 6 7 6 6 7 7 8 8 7 7 8 7 8 10 11 12 13 14 16 16 16 15 16 17 18 17 16 18 18 19 21 20 19 19 19 18 17 17 16 15 16 16 17 18 17 16 15
6 5 5 5 5 4 4 4 4 4 3 2 2 2 2 3 4 5 6 6 6 6 7 7 7 7 7 7 7 8 7 8 8 8 8 7 7 6 7 9 8 7 7 7 8 7 8 8 8 8 8 9 10 12 12 13 14 14 14 14 15 16 17 17 16 15 15 17 20 22 21 20 21 20 18 18 17 16 17 17 16 18 18 17 16
5 5 5 5 4 4 4 3 3 3 3 2 2 2 3 3 4 4 5 6 7 7 8 7 7 7 7 7 8 8 8 8 7 8 8 8 8 7 8 10 11 11 10 9 9 9 9 9 8 7 7 8 9 11 11 12 12 12 13 13 14 14 14 15 15 15 16 16 18 20 21 21 22 21 21 19 17 17 18 18 17 17 19 19 18
5 5 4 4 4 4 3 4 3 3 2 2 2 3 3 3 3 4 5 6 7 8 8 7 7 7 7 8 8 8 8 7 7 8 9 9 10 9 9 9 10 12 13 12 11 10 9 7 6 6 5 7 8 9 10 11 11 12 12 12 12 12 12 13 14 15 16 16 17 18 19 22 24 22 22 22 20 18 19 20 18 16 18 20 19
5 5 4 4 4 3 3 3 3 3 2 2 3 3 3 3 4 4 5 6 7 8 8 8 8 7 7 7 7 7 7 8 8 9 10 10 10 11 11 10 10 11 11 13 13 11 9 8 7 6 5 4 5 6 6 8 12 13 13 12 13 12 12 13 13 13 14 15 16 17 18 21 23 23 24 24 23 21 20 21 20 17 17 20 21
5 5 4 4 4 4 3 3 3 3 2 2 3 3 4 4 5 6 5 6 7 8 8 8 7 7 7 6 6 6 7 8 9 9 9 10 11 12 12 12 12 11 10 11 13 14 12 12 11 9 8 7 6 5 5 6 8 11 11 12 15 13 12 13 13 13 13 13 14 16 18 19 21 22 24 26 26 24 22 22 23 20 17 18 21
5 5 4 3 3 4 3 3 3 2 2 3 3 3 4 5 6 6 6 6 6 7 7 7 6 5 5 5 5 6 6 8 9 9 9 9 10 12 12 13 12 12 11 10 10 13 13 12 13 13 12 11 10 9 8 8 8 9 10 10 13 14 12 12 14 14 13 13 12 13 15 16 19 22 22 24 26 26 25 23 23 22 18 17 20
5 4 4 3 3 3 3 3 3 2 3 3 3 4 5 5 5 6 6 6 6 7 7 6 6 4 3 4 5 6 7 8 8 8 9 10 11 11 12 12 13 12 11 11 10 10 12 13 14 14 14 13 13 12 11 11 10 10 12 11 11 12 12 12 14 14 13 14 13 14 15 14 15 18 20 22 25 26 27 25 22 23 21 18 18
5 4 3 3 3 4 3 3 3 3 3 3 4 5 5 5 5 5 5 5 5 6 7 7 5 2 3 4 5 6 7 7 7 8 9 11 11 11 11 12 12 12 11 11 11 11 12 14 14 14 15 16 15 15 14 14 13 12 14 13 11 12 12 12 13 14 14 15 14 14 16 14 14 15 15 18 22 24 27 27 23 23 23 20 18
5 5 4 4 4 4 4 3 3 3 3 4 4 4 5 5 5 6 4 4 5 5 6 6 3 1 3 5 6 7 8 7 7 9 10 12 11 11 11 11 11 11 11 11 12 12 12 14 14 13 14 17 18 17 17 17 17 15 15 15 14 14 13 13 14 14 15 16 15 14 16 15 15 15 14 14 17 19 24 26 25 25 24 21 19
6 5 5 5 5 5 5 4 3 3 3 4 4 4 4 5 5 5 4 3 6 7 6 5 2 3 5 6 8 8 9 8 8 10 11 12 12 11 11 11 10 10 11 11 12 13 13 13 14 14 14 16 17 18 18 18 18 18 16 16 16 16 16 16 17 16 15 16 16 15 16 17 16 17 17 15 14 15 17 22 25 27 26 24 22
7 6 6 6 6 6 5 4 4 4 4 4 4 4 4 4 4 3 3 3 7 9 8 4 1 3 6 8 9 8 8 8 10 11 12 13 12 11 11 11 11 10 10 10 12 13 13 13 13 14 14 14 15 16 16 16 18 18 17 19 19 18 19 20 19 19 18 17 16 16 18 19 18 18 19 18 17 15 16 18 23 28 28 26 25
7 7 7 7 7 6 5 5 4 4 4 4 4 4 4 4 3 1 3 5 8 11 11 6 2 1 3 7 8 7 7 8 10 12 12 13 11 10 11 12 11 11 10 11 11 12 13 13 13 14 15 15 15 15 15 14 17 19 17 19 21 20 21 22 21 20 21 20 19 19 19 19 19 20 19 19 18 18 18 18 19 24 28 29 29
8 8 8 7 7 6 5 5 4 4 4 4 4 5 4 4 4 2 2 5 8 11 13 10 6 2 3 4 4 4 6 7 9 11 12 14 13 11 12 12 12 11 11 12 12 12 13 13 13 14 15 15 15 15 14 15 18 19 17 19 22 22 22 23 22 22 21 22 21 21 20 19 19 20 20 19 18 18 19 20 19 17 21 28 32
10 9 8 7 6 6 5 4 4 4 4 4 4 5 5 5 5 4 2 4 7 10 13 13 11 5 1 2 2 2 3 4 6 8 10 14 15 13 12 12 12 12 12 13 12 12 12 13 13 13 14 14 14 14 14 15 17 17 16 19 23 23 24 24 24 23 23 22 22 22 22 21 21 21 21 20 19 18 18 20 20 17 17 22 29
11 9 8 7 6 6 6 5 4 4 4 4 5 5 6 6 6 6 5 5 6 8 10 12 14 13 8 3 1 1 3 2 3 6 8 11 13 12 12 11 11 11 11 12 12 11 11 13 13 13 14 14 14 14 14 14 16 17 15 19 24 25 25 26 26 25 25 24 23 23 22 22 22 22 21 20 20 19 18 19 20 20 19 19 24
11 8 8 7 5 6 6 5 4 5 5 5 6 7 8 8 7 7 7 6 5 6 8 10 12 16 15 12 8 5 4 2 1 4 7 9 11 11 11 11 10 10 11 12 12 13 13 13 14 14 14 15 15 15 15 15 16 17 16 21 26 25 26 27 26 27 26 25 24 23 23 23 23 23 22 21 21 22 20 19 20 20 20 19 20
9 8 7 5 5 6 6 6 5 6 7 7 8 8 8 9 8 8 8 7 6 7 7 7 9 12 14 14 13 10 7 5 3 1 4 6 9 10 11 11 11 11 10 12 13 13 14 13 14 14 14 15 15 15 16 15 16 17 17 23 27 26 25 26 26 28 28 27 25 24 24 25 24 24 23 22 23 24 23 21 21 21 20 20 19
8 7 6 5 6 7 7 7 8 8 9 9 9 9 9 9 9 9 10 9 9 9 8 8 9 10 9 10 10 10 10 9 7 4 1 3 6 7 9 9 11 12 10 11 12 13 14 14 14 15 15 15 15 16 16 16 17 16 18 25 26 25 26 25 26 28 28 27 26 26 26 26 26 24 24 23 23 24 24 23 22 21 21 20 19
7 6 6 7 7 8 8 9 10 10 10 11 10 11 10 10 10 11 12 11 11 11 11 11 10 9 8 7 7 8 9 9 9 7 4 3 3 4 4 4 7 10 9 9 10 10 12 14 14 14 15 16 16 17 16 16 16 16 21 27 25 25 26 25 26 27 28 28 27 27 27 27 26 25 24 24 24 24 24 24 24 22 21 21 20
6 6 7 8 9 9 10 10 12 12 11 12 11 11 11 12 13 13 14 14 14 15 13 12 12 10 9 8 7 7 7 8 9 8 6 4 4 3 3 2 3 6 7 7 8 9 11 12 12 13 15 16 16 16 16 17 16 17 25 28 25 25 24 25 26 27 29 29 27 27 28 28 27 26 25 25 25 24 24 25 25 23 22 22 22
7 8 8 9 10 10 11 12 13 12 12 11 11 10 11 12 14 16 16 15 16 16 15 14 13 13 12 11 11 10 9 9 8 8 7 5 4 4 4 3 3 6 6 6 6 9 12 12 12 13 15 16 16 16 17 17 16 19 25 27 26 24 23 24 26 28 31 30 27 27 28 28 28 27 27 27 26 25 24 24 25 25 24 23 23
9 10 10 10 11 12 12 13 13 12 12 11 10 10 11 12 14 15 15 15 15 14 14 14 13 14 13 13 12 11 11 10 9 9 9 8 6 5 6 5 4 6 7 7 7 9 13 14 14 16 17 17 17 17 17 18 17 20 25 27 27 23 21 22 24 29 32 29 27 28 28 29 29 30 30 29 27 26 25 24 25 25 25 25 25
10 10 10 10 11 11 11 12 13 13 12 11 11 12 13 14 15 15 15 16 16 15 15 14 14 13 13 12 12 12 12 11 10 10 10 10 8 6 6 6 5 5 6 9 11 12 13 14 15 18 19 18 19 18 18 19 18 23 29 29 24 22 22 22 24 29 30 27 29 30 30 29 30 31 31 30 29 27 26 25 25 26 26 26 27
12 11 10 10 11 11 12 13 13 13 12 12 12 14 14 15 15 16 16 16 17 17 16 15 15 14 13 12 12 12 12 12 12 12 11 11 10 9 7 4 5 6 6 9 12 14 15 14 15 20 20 20 21 19 20 21 18 26 33 27 21 22 22 22 27 30 27 27 31 32 31 31 32 33 32 31 30 28 27 26 25 26 26 27 28
14 13 12 12 13 13 13 14 13 12 12 13 14 15 15 15 16 16 16 16 16 17 16 16 16 15 13 13 12 12 12 12 12 12 11 11 10 10 9 5 4 6 6 8 12 15 18 15 14 20 22 22 22 21 23 22 20 30 34 24 22 23 21 25 30 28 25 28 32 31 32 34 36 35 32 32 31 29 28 26 25 25 25 26 28
16 14 14 14 14 14 14 14 13 12 12 13 14 14 15 16 16 16 16 16 16 16 16 15 15 14 13 13 13 13 12 12 12 11 10 10 10 10 12 10 7 6 5 7 9 13 19 18 16 20 23 24 24 23 24 22 23 32 31 24 24 22 23 29 31 27 27 30 32 31 32 35 36 34 32 31 30 29 28 26 25 25 25 25 26
17 16 15 15 14 14 14 13 12 12 12 13 14 15 16 16 15 15 15 14 15 14 14 13 13 12 12 12 12 12 11 11 11 10 9 9 10 10 12 13 10 7 5 6 8 12 18 19 18 21 24 25 24 24 25 22 26 32 29 25 24 22 26 31 29 27 29 31 32 33 34 36 37 35 33 31 30 28 28 27 26 25 25 25 25
18 17 16 15 15 14 14 13 12 12 13 14 15 15 16 16 15 15 14 14 14 13 13 12 12 11 11 11 11 11 10 10 10 10 9 9 10 10 11 12 12 10 7 6 7 11 16 17 17 19 23 25 24 23 24 23 26 30 28 25 23 24 29 29 27 28 30 31 32 34 36 38 39 36 34 32 31 30 29 28 27 26 26 26 26
17 16 15 15 14 14 14 13 12 13 13 14 15 16 16 15 15 14 13 13 13 13 12 11 11 11 11 10 10 9 9 9 9 9 9 10 10 10 10 11 12 11 9 7 6 9 13 14 16 17 20 24 23 22 24 24 26 29 27 25 24 26 28 27 27 29 29 30 33 35 38 39 38 38 36 33 32 31 30 30 30 29 28 27 27
16 16 15 15 14 14 13 13 12 13 14 15 15 16 15 14 14 13 13 13 13 12 11 11 10 10 10 10 10 9 8 8 8 9 10 10 10 11 10 11 11 11 10 8 6 8 11 12 14 16 18 22 21 21 24 25 26 27 26 24 24 25 26 27 29 28 28 31 33 36 38 38 38 38 37 35 34 33 32 32 32 32 31 30 29
16 16 15 15 14 14 13 12 13 13 15 15 15 15 15 14 14 13 13 12 12 12 11 11 10 9 10 10 10 9 8 8 8 9 9 10 10 11 11 10 11 10 10 9 8 9 12 13 14 15 18 20 20 20 24 26 28 27 26 24 23 23 25 28 30 28 29 32 35 37 38 38 39 38 37 36 35 34 33 33 33 32 31 30 29
16 16 16 15 14 14 13 12 13 14 16 16 15 15 15 15 14 13 12 12 12 12 11 10 9 8 9 10 9 8 8 8 9 9 9 9 9 10 10 10 10 9 9 9 9 10 12 14 15 17 18 20 20 21 23 26 28 28 26 24 23 23 24 28 30 29 30 34 37 37 38 39 39 38 37 35 34 33 32 31 31 30 30 30 29
16 15 15 15 14 13 13 13 14 15 16 16 15 16 16 15 14 13 12 12 12 11 10 10 9 9 9 9 8 8 8 8 9 9 9 8 9 9 8 8 8 8 7 8 9 11 13 14 16 17 19 20 20 21 23 24 26 27 26 24 23 23 25 28 29 29 31 35 37 38 39 40 39 37 36 34 33 31 30 30 30 29 29 29 29
16 16 15 15 14 13 13 14 15 16 16 16 16 16 15 14 14 13 12 11 11 10 10 9 9 9 8 8 8 8 8 8 9 9 9 9 8 9 8 7 8 8 7 8 9 10 12 14 15 17 18 19 20 21 23 24 25 26 26 25 23 23 25 28 29 30 32 35 36 39 40 39 37 36 34 33 32 31 29 30 29 27 27 28 28
17 16 16 15 14 13 13 14 15 16 17 17 16 15 15 14 13 13 12 11 11 10 10 9 9 8 8 8 8 8 8 9 8 8 9 9 8 8 8 8 8 8 8 9 10 10 12 13 15 16 17 18 20 21 23 25 25 25 25 26 24 22 25 28 29 30 33 36 37 39 40 39 37 35 33 32 32 30 30 29 26 25 28 30 30
17 16 16 14 13 13 14 15 16 17 17 16 16 15 14 13 13 12 12 11 11 10 10 9 9 8 8 8 8 9 9 9 9 8 8 7 7 8 8 9 9 9 9 10 11 12 12 13 15 16 17 18 20 21 23 25 26 25 26 27 25 23 25 28 31 31 33 36 37 38 39 39 37 35 32 31 29 29 30 27 24 26 32 34 33
17 16 15 14 13 14 15 16 17 17 17 16 15 15 14 13 13 12 12 11 10 10 10 9 9 8 8 9 9 9 9 9 8 8 7 6 6 8 8 9 10 10 11 11 12 12 12 13 14 16 17 18 19 21 23 24 24 24 25 26 25 26 27 28 31 32 34 37 37 37 38 37 36 34 31 29 28 29 29 27 25 31 37 36 35
16 16 15 15 14 14 15 16 17 17 17 16 15 15 14 13 13 12 12 11 10 10 10 9 9 8 9 9 9 9 10 11 10 10 8 6 5 7 9 9 10 11 11 11 12 13 13 13 14 15 17 18 19 21 23 25 24 24 25 24 24 26 28 29 29 30 33 38 38 37 37 36 35 33 31 29 29 30 29 27 29 36 39 38 36
16 15 15 15 15 15 16 17 17 17 16 15 14 14 14 13 13 12 11 11 10 10 10 9 9 9 9 9 10 11 12 13 12 11 11 9 8 7 8 9 10 11 12 12 12 13 13 13 14 16 17 18 20 22 24 25 25 25 25 23 22 24 26 28 28 28 32 37 38 37 36 35 35 32 31 30 29 30 29 29 33 39 40 39 38
15 15 15 15 15 16 17 17 17 16 15 14 16 16 14 13 12 11 11 10 9 10 9 9 9 9 9 9 10 12 12 12 12 11 10 10 10 9 9 10 11 11 12 12 12 13 13 13 14 16 17 17 19 22 23 24 25 25 24 23 22 23 25 26 25 27 33 37 38 36 35 36 36 32 30 30 29 29 29 31 37 42 41 40 39
16 15 15 15 15 16 17 17 17 16 14 17 21 20 17 15 12 11 10 10 9 9 9 9 9 9 8 8 8 9 9 8 8 9 9 9 10 10 10 11 12 12 12 12 12 12 13 13 14 15 16 17 19 20 22 23 25 25 24 22 23 24 25 25 23 26 33 37 36 34 33 35 36 32 30 31 30 30 30 34 40 43 42 41 40
16 16 15 15 15 16 17 18 17 15 15 21 24 22 19 17 13 10 9 9 9 8 8 8 8 8 8 8 7 8 8 7 5 5 6 8 8 9 10 11 12 13 12 12 11 11 11 12 13 15 16 16 18 19 22 23 24 25 23 22 23 23 24 24 23 25 30 34 35 32 31 33 35 32 31 32 31 30 32 37 42 44 42 41 41
16 16 16 15 16 16 17 18 17 16 19 24 23 20 20 18 14 11 9 8 8 8 8 8 8 8 7 7 7 7 8 8 5 3 3 4 5 7 9 9 10 13 14 13 12 12 11 11 12 14 15 15 16 18 21 22 23 23 22 22 23 22 22 22 23 25 27 31 33 30 28 32 35 33 31 32 31 31 34 39 44 45 44 43 42
17 16 16 15 16 16 17 18 17 16 21 24 22 20 19 17 14 11 8 8 8 7 7 7 7 7 6 6 6 6 5 5 5 3 3 3 3 5 6 5 5 9 12 13 12 12 11 10 11 12 13 13 14 15 18 21 22 22 21 23 24 22 21 20 22 23 24 27 31 28 25 30 35 33 31 32 31 31 37 42 45 47 46 44 43
17 17 16 16 16 16 17 17 15 16 21 24 22 20 19 17 14 11 8 8 8 7 7 7 6 6 6 5 5 5 4 4 5 6 5 4 3 5 5 4 4 5 8 12 13 12 10 9 9 10 11 12 13 15 18 20 22 21 19 20 22 21 19 19 20 22 21 23 29 27 23 28 34 32 31 32 30 31 38 44 46 48 48 45 43
17 17 17 16 17 16 16 16 14 14 20 24 22 20 18 16 14 10 8 8 8 7 7 6 6 5 4 4 4 4 3 3 5 7 7 6 4 5 5 5 5 5 7 13 16 15 13 11 11 11 12 13 14 16 20 22 24 22 18 18 20 20 19 19 20 23 22 22 27 29 25 27 33 33 32 32 30 32 39 45 46 48 48 46 43
18 18 18 17 18 17 16 16 13 15 21 24 22 20 19 16 13 9 8 8 8 7 7 6 5 4 4 4 4 3 2 2 4 6 7 7 6 6 6 6 7 7 9 12 14 16 16 15 16 16 16 17 17 17 19 22 24 22 19 19 21 20 20 19 19 22 23 22 27 30 25 26 33 34 33 34 31 30 37 43 46 48 48 47 45
20 19 18 18 19 19 20 18 15 17 23 24 22 21 20 16 13 9 8 8 8 7 7 6 5 4 4 5 6 4 1 1 4 5 6 7 6 7 7 7 8 9 11 12 13 15 16 15 16 17 17 18 17 15 16 19 22 20 17 18 21 20 19 19 19 21 21 22 28 30 24 24 29 30 31 32 29 30 36 40 43 47 48 47 48
20 20 21 23 24 25 25 23 19 20 23 24 23 21 20 17 13 9 8 8 8 7 7 6 5 5 4 4 4 4 2 3 4 5 6 6 6 6 6 7 7 9 11 12 12 14 14 13 14 15 15 16 15 14 15 17 18 18 17 17 18 19 19 19 20 19 16 18 28 30 23 22 26 27 29 26 20 25 37 40 41 45 47 46 48
Wind_Direction
156 160 164 162 159 159 159 153 147 147 147 152 151 146 107 339 324 318 320 323 331 337 334 334 329 329 333 332 338 339 336 336 333 332 330 333 336 331 333 330 327 328 323 324 325 328 332 330 331 326 309 304 304 304 304 301 299 300 302 305 303 296 294 287 276 276 272 265 267 272 275 277 280 282 282 283 283 279 278 275 267 264 264 261 260
153 158 164 168 169 165 160 152 145 144 151 155 137 109 59 16 348 337 340 339 344 346 338 333 329 335 341 340 346 344 342 343 340 342 341 343 348 354 360 352 341 341 338 336 338 342 348 349 348 341 323 314 312 308 305 304 304 304 304 305 304 301 302 300 290 283 276 268 267 266 268 272 276 279 278 277 278 274 278 283 272 263 263 262 260
158 165 175 183 184 179 168 156 148 147 155 147 116 89 61 36 14 359 355 349 346 344 338 339 338 343 349 350 353 349 351 353 350 357 356 358 5 13 22 18 11 4 359 357 360 0 5 10 4 354 338 328 324 320 318 317 315 314 314 310 306 304 305 306 301 292 282 274 272 269 265 267 272 275 275 273 271 268 273 284 277 264 260 260 261
169 174 186 196 196 190 174 161 153 148 148 125 101 82 68 56 37 16 1 350 345 345 343 343 343 346 352 357 360 356 360 3 3 13 16 21 24 24 26 26 20 15 15 17 24 30 28 29 26 18 9 1 352 345 346 342 336 336 333 325 318 315 311 306 301 296 290 283 279 275 268 265 265 268 272 273 270 265 268 277 279 269 259 256 258
179 179 189 200 197 189 169 156 150 141 136 106 88 75 66 57 42 25 7 355 350 351 347 344 344 352 360 0 3 3 7 15 24 32 35 34 33 33 31 31 23 15 14 12 18 35 33 27 29 28 28 35 28 17 20 13 4 4 356 346 340 336 330 318 307 300 294 289 286 281 274 268 266 265 268 271 271 268 266 270 276 274 262 254 253
188 185 187 190 182 169 158 151 145 138 128 89 75 65 51 39 32 26 18 6 357 352 347 346 346 353 3 2 8 15 22 33 40 43 45 43 41 41 37 33 28 21 17 7 3 12 17 12 10 6 358 19 32 18 20 25 20 17 13 6 356 349 348 341 328 319 308 298 294 288 280 273 272 271 267 266 265 265 266 267 271 276 270 257 251
196 195 186 176 162 152 152 150 143 131 105 75 66 58 43 33 25 20 22 12 360 352 346 344 344 351 1 5 20 30 40 48 48 50 51 50 49 46 42 36 30 27 22 12 3 355 359 13 14 7 3 356 353 343 334 350 4 6 9 10 2 355 355 352 345 341 333 318 308 299 291 283 279 276 271 267 262 262 265 263 265 272 275 265 254
195 196 181 167 158 151 153 151 138 111 85 70 60 53 40 35 26 14 18 15 2 353 345 339 339 348 5 21 39 44 51 59 56 54 53 53 52 48 43 37 31 28 21 16 10 352 349 10 14 7 8 5 358 351 343 333 328 340 348 351 355 355 355 356 351 349 350 341 329 319 312 300 287 280 276 273 267 265 263 259 262 266 268 269 259
187 185 175 171 164 152 152 149 130 107 94 77 59 45 34 31 21 7 12 16 6 355 345 338 337 347 33 50 53 57 57 61 61 58 56 53 49 44 39 33 28 27 21 15 14 2 353 4 11 4 358 2 6 1 358 352 340 344 347 338 336 338 339 345 346 345 350 350 342 338 338 328 307 290 281 277 271 266 261 256 260 263 263 265 260
176 173 174 173 163 152 149 143 123 112 103 84 58 40 31 26 11 355 359 17 17 360 345 340 338 357 73 73 63 68 69 66 63 59 56 50 44 40 35 30 27 24 22 19 16 12 3 2 8 4 352 351 359 359 357 357 354 353 353 348 341 333 325 323 327 329 338 348 343 340 341 338 334 319 297 285 278 271 263 255 255 260 259 260 260
170 171 173 169 157 146 139 131 113 100 87 71 53 34 25 19 5 349 347 24 29 8 347 340 340 70 93 91 78 75 74 67 62 58 53 48 41 37 32 27 26 24 24 23 19 13 8 4 4 3 355 350 353 355 354 353 351 352 352 350 349 347 340 330 327 321 321 332 333 333 335 331 333 333 323 311 297 284 271 259 256 257 254 253 255
167 167 164 159 147 137 131 117 97 75 59 54 45 29 17 6 356 350 348 33 34 17 360 344 343 117 113 106 95 89 80 66 60 58 53 45 37 34 32 28 27 26 26 24 21 16 10 8 4 2 358 353 353 353 355 355 347 348 351 347 346 348 350 347 343 336 323 321 318 315 321 323 325 326 324 323 318 307 288 271 261 256 252 246 247
158 158 158 154 141 133 127 106 86 68 57 53 43 29 17 359 341 352 6 38 36 23 15 356 323 126 129 128 118 104 86 68 60 60 54 43 38 39 36 34 33 29 29 24 21 20 15 11 7 4 0 357 356 352 356 357 345 345 352 347 343 345 350 349 345 345 338 328 320 311 311 315 318 319 317 315 316 318 311 291 269 257 249 242 243
150 152 152 149 139 130 118 95 77 62 52 47 37 28 20 5 348 360 41 56 48 30 27 26 1 29 144 149 137 117 100 84 68 63 52 42 43 46 42 39 38 35 31 26 22 22 20 15 10 8 5 1 358 354 354 354 345 348 355 347 341 343 350 349 344 344 343 336 331 324 316 314 314 313 310 307 307 312 319 314 290 269 255 245 242
147 147 143 138 131 121 106 87 71 50 41 40 34 28 26 23 19 17 64 72 60 40 35 33 15 323 217 167 152 148 131 107 81 71 57 49 48 48 47 43 42 40 35 32 26 23 20 17 14 10 9 5 0 357 353 350 347 350 355 345 339 343 348 348 347 345 342 339 336 331 323 316 313 310 306 304 304 306 316 319 308 293 275 258 246
145 135 133 134 122 109 99 90 71 50 47 46 42 40 41 43 40 36 46 75 68 51 42 34 25 10 262 167 165 173 118 102 93 88 67 55 52 50 51 47 45 44 40 35 27 22 18 14 12 7 6 3 358 356 351 348 348 348 350 341 338 345 347 345 346 344 341 339 336 333 330 323 315 308 304 304 305 306 312 315 307 301 296 275 255
143 126 129 136 122 104 95 86 71 61 64 61 61 60 57 54 53 52 50 63 83 72 54 43 39 38 37 53 117 82 67 64 108 98 73 58 57 54 51 47 44 41 37 31 21 18 13 9 9 5 3 1 357 355 349 347 347 346 346 339 337 344 345 342 343 342 340 339 336 334 333 330 323 315 308 305 307 306 306 309 304 298 298 287 266
140 131 133 131 113 100 92 84 76 76 80 80 79 73 66 61 57 59 57 57 83 93 76 62 53 49 51 55 53 49 40 322 232 116 94 71 62 56 50 45 42 40 35 29 24 21 16 11 10 6 4 1 357 354 350 348 345 344 342 336 337 341 341 340 341 338 337 337 336 334 332 330 328 324 318 313 312 308 302 301 300 297 296 293 283
136 131 128 120 108 99 95 94 92 89 89 89 86 78 72 68 64 64 65 61 72 86 84 78 67 59 60 64 62 53 40 23 15 120 124 88 67 59 54 48 45 44 38 33 29 23 19 14 8 6 3 360 357 353 351 348 344 344 339 332 336 340 337 337 338 337 336 336 335 334 332 330 328 326 323 320 318 311 303 299 296 295 296 295 293
133 123 116 114 112 103 99 100 97 94 93 91 86 82 78 72 69 69 69 67 69 76 75 72 74 72 71 73 70 61 54 49 39 27 89 96 79 68 59 56 52 44 35 31 27 21 18 13 7 5 2 359 356 352 349 346 344 343 338 336 339 339 336 335 335 336 336 336 334 333 332 330 329 327 323 320 319 314 306 301 299 296 296 294 291
137 128 125 113 110 107 104 104 102 99 96 93 91 88 82 74 71 71 73 73 72 76 74 69 71 75 76 78 77 72 66 60 50 44 47 60 78 71 58 64 57 41 27 19 18 16 13 10 6 5 2 359 355 352 349 345 342 339 339 341 340 335 334 335 334 335 336 334 332 331 330 330 328 326 322 319 317 315 311 305 303 301 301 300 291
147 141 131 113 109 107 107 111 110 105 100 97 93 87 82 78 79 80 80 79 79 78 75 73 73 69 69 71 70 67 64 56 49 48 47 46 61 62 48 50 52 39 21 9 11 11 9 7 5 3 1 357 352 350 346 342 338 333 337 341 337 332 332 332 334 335 335 333 330 328 328 328 327 325 322 320 316 314 312 308 308 307 304 303 294
151 139 124 116 117 114 115 117 112 106 101 96 90 84 81 80 85 88 85 81 82 81 77 76 76 71 68 67 64 60 59 54 44 41 42 40 41 44 38 25 38 43 25 11 14 13 11 10 10 7 2 357 352 348 342 339 334 330 333 334 332 330 328 329 332 333 333 331 329 328 327 326 326 325 323 320 317 314 311 309 308 307 303 301 294
136 126 121 123 124 120 117 115 110 107 101 95 91 88 89 88 88 88 84 81 81 82 79 77 76 75 70 67 67 64 60 57 47 43 41 33 26 31 30 19 26 40 33 28 28 23 16 12 11 8 3 358 353 348 343 339 335 331 331 330 329 328 327 326 329 332 333 333 330 328 328 327 326 325 324 321 318 314 311 308 305 303 300 299 295
123 119 122 125 122 119 117 113 113 110 102 97 94 93 95 95 93 89 85 85 86 85 82 79 77 77 75 71 70 67 61 57 51 47 43 37 33 26 21 20 22 32 43 37 28 25 20 16 12 7 4 1 354 350 346 341 337 337 335 331 329 330 328 325 326 331 333 332 331 330 328 328 327 326 324 321 318 315 312 309 308 305 301 300 298
124 124 128 129 125 123 121 117 115 111 105 101 100 100 99 97 95 91 88 89 89 88 84 81 79 77 78 76 71 67 62 56 53 50 45 41 37 22 9 19 35 35 45 39 29 24 18 15 15 8 4 2 356 352 349 344 339 341 340 334 330 332 328 324 327 330 331 331 332 332 330 328 328 327 325 322 319 316 314 311 308 307 303 299 298
135 134 133 132 128 126 123 119 115 109 103 102 103 105 103 101 99 95 94 93 91 90 86 83 82 78 78 78 73 69 62 57 55 52 47 43 39 27 15 19 40 39 41 37 33 27 17 11 13 10 4 360 358 353 350 348 342 343 345 340 332 333 328 325 329 332 333 333 334 332 330 329 328 327 324 323 321 317 314 311 308 306 304 300 297
142 136 133 132 129 126 123 119 115 108 104 106 108 108 106 105 103 99 98 97 93 92 88 85 84 81 79 78 75 71 64 60 57 52 50 45 41 36 29 24 22 23 30 31 29 24 16 10 6 7 5 358 355 352 350 348 344 344 345 340 335 334 328 328 334 337 334 334 334 332 330 330 329 328 325 324 322 318 315 312 310 307 304 302 299
145 138 134 133 130 127 124 119 114 108 107 111 112 112 110 106 105 103 101 100 97 94 91 88 87 83 81 78 76 74 67 63 60 53 51 47 42 42 38 31 25 20 19 21 24 14 8 8 2 357 358 356 352 349 347 345 343 343 341 337 336 334 331 334 339 338 334 333 332 330 331 332 331 330 327 325 323 320 317 314 312 310 306 303 300
147 139 136 135 132 129 126 120 116 111 111 115 115 114 112 109 108 106 104 104 100 96 94 91 88 85 83 80 78 77 70 65 61 54 50 49 46 44 41 37 32 29 18 9 25 15 0 1 359 351 349 350 348 344 343 341 341 342 339 336 337 336 335 338 339 336 334 332 330 329 330 331 331 331 329 326 323 321 318 316 313 311 308 305 301
145 140 138 139 136 132 128 122 118 116 116 118 118 117 115 113 111 108 107 107 103 100 97 91 89 86 84 83 80 77 72 66 61 55 51 49 45 43 42 40 34 30 18 2 12 14 359 352 350 348 345 345 344 342 341 339 340 341 338 336 338 339 339 341 339 337 335 331 329 329 329 330 331 332 331 327 324 322 318 317 315 312 310 308 305
143 141 141 141 139 134 131 126 122 121 122 122 122 121 118 116 114 112 111 109 105 103 99 94 93 89 86 84 79 74 72 69 61 55 52 48 45 43 41 39 34 25 16 6 357 358 358 350 344 346 345 342 342 343 341 339 339 339 339 338 339 339 342 343 341 340 337 333 329 328 330 333 333 332 331 328 326 324 321 320 319 317 315 312 309
144 143 143 143 141 136 132 130 127 127 128 127 126 125 121 119 116 114 113 111 107 104 102 99 97 94 89 84 79 74 70 68 63 57 53 48 46 44 40 37 33 23 12 5 354 346 349 351 347 346 346 344 344 346 344 340 338 338 339 341 341 340 341 344 343 342 338 334 331 331 333 335 334 333 332 330 329 327 325 324 323 320 318 317 313
145 144 145 143 141 138 134 132 131 132 133 131 130 128 125 122 119 118 118 115 111 107 105 104 100 97 91 85 81 75 69 68 63 57 54 50 46 44 39 33 26 19 10 359 350 342 342 346 348 346 346 347 346 348 348 343 338 338 340 343 344 341 341 344 344 342 338 335 334 334 335 335 335 335 334 334 333 332 330 328 327 325 322 320 318
145 145 146 144 142 139 136 135 134 135 135 133 132 130 128 125 122 122 122 117 115 113 111 109 104 99 92 84 80 74 70 69 64 57 54 50 46 40 34 29 17 7 1 353 346 341 338 341 346 347 347 348 347 348 349 345 340 340 342 344 344 343 343 346 345 342 339 338 337 335 336 337 337 337 337 337 336 335 334 333 332 330 327 323 321
145 146 146 144 144 141 138 138 138 138 138 135 134 131 129 128 126 126 124 119 118 117 113 110 103 99 93 84 78 74 71 69 63 59 54 49 45 37 26 20 12 1 353 351 347 343 338 338 344 348 347 348 348 349 349 347 345 344 344 344 345 345 345 346 347 344 341 341 339 338 339 340 339 339 339 338 336 337 338 338 339 340 339 335 329
147 147 147 146 145 143 141 142 142 141 140 137 135 133 131 131 130 128 125 122 119 116 112 108 102 97 92 84 76 71 69 66 63 58 51 47 41 32 24 18 9 360 354 354 352 349 345 343 346 348 350 350 349 350 351 350 347 346 345 344 346 348 348 347 346 344 343 342 342 341 341 342 341 341 341 338 336 339 341 341 344 348 347 341 333
149 148 148 148 146 145 145 145 145 143 141 139 137 136 135 134 133 129 126 124 121 117 112 107 102 97 91 83 74 68 65 62 59 53 45 43 37 26 19 14 7 1 358 359 357 354 352 351 350 350 352 353 351 351 353 352 349 347 346 344 346 350 350 348 346 345 345 344 342 343 343 343 343 343 342 340 338 340 342 341 342 346 345 339 333
151 151 151 148 146 147 146 146 146 143 141 140 139 139 139 138 136 132 130 128 123 118 113 107 103 97 88 81 71 66 64 61 56 46 35 32 30 25 19 11 7 4 3 2 359 358 357 357 356 354 353 353 353 352 351 351 350 350 349 345 345 349 350 350 348 346 346 345 343 344 345 344 344 345 344 343 342 343 344 343 344 345 344 340 335
153 153 152 148 147 147 146 146 145 143 142 142 143 144 143 141 138 135 133 131 126 122 116 110 104 96 88 81 74 71 71 70 67 58 50 45 30 23 20 13 9 8 7 5 2 1 1 360 359 357 354 354 354 352 351 353 352 351 351 347 344 346 348 350 350 349 349 347 344 344 346 346 346 347 346 345 346 348 347 347 347 345 343 341 339
155 154 153 150 148 147 147 146 145 145 145 145 148 149 147 144 141 139 137 134 130 125 120 114 107 98 91 84 80 81 79 75 72 65 62 61 53 38 25 17 13 11 9 7 6 4 1 2 2 358 355 357 356 354 354 354 350 346 346 347 346 346 348 350 353 355 354 351 345 344 347 348 347 346 347 347 348 349 349 348 347 345 344 344 343
156 155 153 150 149 149 148 148 148 148 148 153 156 154 151 148 145 142 141 137 133 129 124 117 110 103 97 90 84 80 73 67 64 61 59 57 54 49 38 27 22 17 13 9 8 5 1 2 3 360 358 358 357 356 354 350 346 343 346 349 346 346 350 352 353 357 358 354 348 344 346 349 348 346 348 351 350 350 351 349 348 347 347 346 346
157 156 155 152 151 152 151 151 152 151 156 164 163 157 153 150 146 145 143 138 135 132 127 122 116 109 104 98 86 75 69 64 54 46 47 49 50 49 45 38 33 29 22 15 9 3 0 2 3 1 360 356 356 357 354 348 345 344 345 348 347 347 353 355 354 355 356 354 350 345 345 350 351 348 350 354 352 352 353 351 350 351 351 349 349
159 158 157 155 154 155 156 157 157 156 165 170 166 160 157 150 144 146 143 138 137 133 128 126 119 114 110 102 91 81 84 85 63 34 35 40 44 46 43 38 35 34 33 28 19 7 357 356 360 3 1 355 354 357 355 347 342 341 343 347 350 349 351 355 354 350 349 352 353 348 345 351 354 352 354 357 355 354 354 354 355 356 355 354 352
161 160 158 157 156 158 159 160 160 159 165 169 167 164 161 152 143 143 143 138 137 132 127 123 119 118 115 107 98 84 76 69 55 34 20 21 27 31 29 25 22 23 26 26 21 13 2 353 356 1 360 356 354 354 352 346 341 341 342 345 349 349 349 352 352 346 344 352 356 349 344 352 355 354 357 358 356 356 357 358 360 0 359 358 357
163 161 159 158 159 161 162 163 163 161 165 169 168 167 167 157 142 139 141 139 134 129 127 121 115 115 112 107 101 89 72 55 51 56 32 6 7 16 21 22 19 20 21 19 15 11 4 355 354 355 355 355 354 350 349 349 346 343 341 342 345 346 346 347 347 345 348 356 358 351 346 352 356 354 355 356 355 357 359 1 3 4 4 2 1
164 162 162 162 163 164 165 165 163 163 169 171 169 170 172 164 146 135 138 142 136 131 130 122 114 114 109 103 99 90 76 52 56 65 57 33 12 10 17 20 17 21 19 19 23 23 15 6 359 354 354 359 2 359 357 358 355 346 339 342 344 343 343 346 349 352 355 1 3 358 348 350 355 353 350 351 353 356 360 3 5 7 7 6 5
166 164 164 163 163 163 164 165 164 167 173 174 172 174 177 170 152 139 143 147 140 138 138 129 123 119 107 102 99 94 84 49 47 58 62 59 31 12 22 25 23 27 12 11 20 23 22 23 19 17 18 17 16 12 6 6 4 354 344 347 350 347 348 351 354 357 359 3 7 2 350 348 355 353 345 346 352 355 358 3 6 7 8 9 9
167 166 164 161 161 160 159 162 166 171 176 177 176 179 181 172 154 148 156 152 143 147 148 141 135 128 119 122 109 90 70 46 51 55 61 64 41 18 26 27 25 29 16 6 8 10 13 17 14 13 15 12 12 10 3 5 7 360 351 353 353 351 352 354 356 357 359 5 6 1 354 352 354 353 346 344 350 357 359 1 5 7 9 11 13
164 163 160 157 159 159 160 163 170 175 178 180 180 183 184 172 156 157 165 155 148 154 154 150 151 142 129 127 117 110 119 53 62 63 63 64 43 17 19 21 19 21 13 4 1 0 4 6 0 358 360 358 360 1 356 359 3 1 356 353 351 350 352 354 356 354 358 8 6 359 356 353 351 353 352 345 345 356 1 2 4 6 9 12 14
161 160 161 163 165 168 169 171 174 177 180 181 181 184 185 175 162 164 169 159 156 162 161 159 163 156 140 121 113 119 119 81 70 69 68 67 49 20 12 16 18 14 5 359 354 352 352 350 350 353 355 354 355 356 355 358 1 1 359 353 350 350 349 351 355 355 357 6 3 357 356 351 347 352 357 352 343 348 356 0 4 6 8 11 14